SWISSCUBE

Last updated on Fri Dec 19 2025 00:03:11 GMT+0000 (Coordinated Universal Time)

1 35932U 09051B 25352.65682430 .00001019 00000+0 21310-3 0 9998 2 35932 98.4147 252.3435 0008001 58.5463 301.6518 14.61973953862773
UTC large
Height (km)
Speed (km/s)
/
Latitude / Longitude
Inclination (degrees)
Orbital Period (minutes)
Azimuth
Elevation
Range (km)
Doppler Factor

Next 0 passes for location: London (51.5072 / 0.1276)

Sorry there are no passes over London.